Atlantic - Newfoundland: Past 24 Hour Conditions

 

St. John's Int'l Airport

11:30 PM NDT 20 August 2014
This table is a summary of hourly weather conditions for the past 24 hours.
Date / Time
(NDT)
Wind(knots) Conditions Visibility(km) Pressure(kPa) Air tempC) Relative humidity(%) Dew pointC) Humidex
20 August 2014
23:30 SSW 11 gust 19 Mostly Cloudy 24 101.0 16 92 15 *
22:30 SW 10 gust 17 Partly Cloudy 24 101.1 16 93 15 *
21:30 SSW 9 gust 17 Partly Cloudy 24 101.1 16 94 15 *
20:30 SSW 12 gust 18 Mostly Cloudy 24 101.1 17 93 16 *
19:30 SSW 13 gust 19 Light Rainshower 19 101.1 18 93 17 *
18:30 S 12 gust 22 Mostly Cloudy 24 101.1 18 90 17 *
17:30 S 13 gust 19 Mostly Cloudy 24 101.1 19 89 17 *
16:30 SSW 19 gust 26 Rainshower 24 101.1 18 90 17 *
15:30 SW 15 gust 22 Mostly Cloudy 24 101.1 21 70 15 25
14:30 SSW 17 gust 24 Mostly Cloudy 24 101.1 21 73 16 26
13:30 SSW 16 gust 22 Mostly Cloudy 24 101.1 21 81 18 27
12:30 S 9 Light Rainshower 24 101.2 19 92 18 *
11:30 S 12 gust 19 Mostly Cloudy 24 101.2 19 80 16 *
10:30 SSW 11 Mostly Cloudy 24 101.2 20 79 16 *
9:30 SSW 12 gust 20 Mostly Cloudy 24 101.2 19 82 16 *
8:30 S 11 Mostly Cloudy 24 101.2 17 90 16 *
7:30 S 10 Mostly Cloudy 24 101.2 17 93 15 *
6:30 SSW 9 Partly Cloudy 24 101.1 16 96 15 *
5:30 SSW 9 Partly Cloudy 24 101.1 15 97 15 *
4:30 SSW 11 Mainly Clear 24 101.1 15 96 15 *
3:30 SSW 11 Mainly Clear 24 101.0 15 96 15 *
2:30 S 13 Partly Cloudy 24 101.0 15 97 15 *
1:30 SSW 10 Mainly Clear 24 101.0 15 96 15 *
0:30 SSW 8 Mainly Clear 24 101.0 15 95 15 *
19 August 2014
23:30 S 12 Mainly Clear 24 101.0 16 95 15 *
 
Map of Atlantic - Newfoundland marine weather areas Southwestern Grand Banks - 44138 Banquereau - 44139 Tail of the Bank - 44140 Nickerson Bank - 44251 Northeast Burgeo Bank - 44255 Blanc-Sablon Airport Cap Whittle Chevery Natashquan Airport Heath Point Miscou Island Grand Étang Ingonish Beach North Mountain St.Paul Island J.A. Douglas McCurdy Sydney Airport Charlottetown Airport East Point North Cape Argentia Bonavista Burgeo Cape Race Corner Brook Daniel's Harbour Englee Ferolle Point La Scie Port aux Basques Rocky Harbour Sagona Island St. Anthony Airport St. John's Int'l Airport St. Lawrence Stephenville Airport Twillingate Winterland Wreckhouse Cartwright Airport Mary's Harbour Grates Cove Pool's Island Marticot Island Long Pond Îles de la Madeleine Airport
Legend: buoyBuoy land stationLand Station